When you browse on this site, cookies collect data to enhance your experience and personalize the content and advertising you see.
Visit our Privacy Policy to learn more. By continuing to use the site, you agree to this use of cookies and data.
  • In Hungary
  • List of Countries
  • For 7 days
  • Water Temperature
  • Satellite Maps
  • Weather Map
  • News
  • Weather Widgets
  • user-avatar
    Login

    Hourly Weather Werder

    Today, 23 February, Saturday

    Time Temperature Precipitation Wind Pressure Humidity
    00:00 -2°C° 0 mm 2 mps 779 mmHg 57%
    01:00 -2°C° 0 mm 2 mps 779 mmHg 57%
    02:00 -2°C° 0 mm 2 mps 779 mmHg 57%
    03:00 -3°C° 0 mm 2 mps 779 mmHg 57%
    04:00 -3°C° 0 mm 2 mps 778 mmHg 56%
    05:00 -3°C° 0 mm 2 mps 778 mmHg 56%
    06:00 -3°C° 0 mm 2 mps 779 mmHg 55%
    07:00 -3°C° 0 mm 2 mps 779 mmHg 55%
    08:00 -2°C° 0 mm 2 mps 779 mmHg 49%
    09:00 -1°C° 0 mm 2 mps 779 mmHg 44%
    10:00 0°C° 0 mm 3 mps 779 mmHg 38%
    11:00 +2°C° 0 mm 3 mps 778 mmHg 35%
    12:00 +3°C° 0 mm 3 mps 778 mmHg 32%
    13:00 +4°C° 0 mm 3 mps 778 mmHg 28%
    14:00 +6°C° 0 mm 2 mps 777 mmHg 31%
    15:00 +6°C° 0 mm 2 mps 777 mmHg 33%
    16:00 +6°C° 0 mm 2 mps 777 mmHg 35%
    17:00 +4°C° 0 mm 2 mps 777 mmHg 39%
    18:00 +3°C° 0 mm 2 mps 777 mmHg 42%
    19:00 +1°C° 0 mm 2 mps 777 mmHg 46%
    20:00 +1°C° 0 mm 2 mps 777 mmHg 47%
    21:00 +1°C° 0 mm 2 mps 777 mmHg 48%
    22:00 +1°C° 0 mm 1 mps 777 mmHg 48%
    23:00 +1°C° 0 mm 1 mps 777 mmHg 48%

    Tomorrow, 24 February, Sunday

    Time Temperature Precipitation Wind Pressure Humidity
    00:00 +1°C° 0 mm 1 mps 777 mmHg 47%
    01:00 +1°C° 0 mm 1 mps 776 mmHg 47%
    02:00 +1°C° 0 mm 1 mps 776 mmHg 46%
    03:00 +1°C° 0 mm 1 mps 776 mmHg 45%
    04:00 +1°C° 0 mm 1 mps 776 mmHg 45%
    05:00 +1°C° 0 mm 1 mps 776 mmHg 45%
    06:00 +1°C° 0 mm 1 mps 776 mmHg 45%
    07:00 +1°C° 0 mm 1 mps 776 mmHg 46%
    08:00 +3°C° 0 mm 1 mps 776 mmHg 43%
    09:00 +5°C° 0 mm 1 mps 776 mmHg 40%
    10:00 +6°C° 0 mm 1 mps 776 mmHg 38%
    11:00 +8°C° 0 mm 1 mps 776 mmHg 36%
    12:00 +9°C° 0 mm 1 mps 776 mmHg 34%
    13:00 +11°C° 0 mm 1 mps 776 mmHg 33%
    14:00 +11°C° 0 mm 1 mps 775 mmHg 37%
    15:00 +11°C° 0 mm 1 mps 775 mmHg 41%
    16:00 +11°C° 0 mm 1 mps 775 mmHg 45%
    17:00 +9°C° 0 mm 1 mps 775 mmHg 49%
    18:00 +8°C° 0 mm 1 mps 775 mmHg 53%
    19:00 +5°C° 0 mm 2 mps 775 mmHg 57%
    20:00 +6°C° 0 mm 1 mps 775 mmHg 59%
    21:00 +5°C° 0 mm 1 mps 775 mmHg 60%
    22:00 +5°C° 0 mm 1 mps 776 mmHg 61%
    23:00 +5°C° 0 mm 1 mps 776 mmHg 62%

    Day after tomorrow, 25 February, Monday

    Time Temperature Precipitation Wind Pressure Humidity
    00:00 +4°C° 0 mm 1 mps 776 mmHg 63%
    01:00 +4°C° 0 mm 1 mps 776 mmHg 64%
    02:00 +4°C° 0 mm 1 mps 775 mmHg 66%
    03:00 +3°C° 0 mm 1 mps 775 mmHg 67%
    04:00 +3°C° 0 mm 1 mps 775 mmHg 69%
    05:00 +3°C° 0 mm 1 mps 775 mmHg 70%
    06:00 +3°C° 0 mm 1 mps 775 mmHg 72%
    07:00 +3°C° 0 mm 1 mps 775 mmHg 73%
    08:00 +4°C° 0 mm 1 mps 776 mmHg 68%
    09:00 +6°C° 0 mm 1 mps 776 mmHg 63%
    10:00 +8°C° 0 mm 1 mps 776 mmHg 58%
    11:00 +9°C° 0 mm 1 mps 776 mmHg 53%
    12:00 +11°C° 0 mm 1 mps 775 mmHg 48%
    13:00 +12°C° 0 mm 2 mps 775 mmHg 44%
    14:00 +12°C° 0 mm 2 mps 775 mmHg 46%
    15:00 +12°C° 0 mm 2 mps 774 mmHg 48%
    16:00 +13°C° 0 mm 2 mps 774 mmHg 50%
    17:00 +10°C° 0 mm 2 mps 774 mmHg 56%
    18:00 +8°C° 0 mm 2 mps 774 mmHg 62%
    19:00 +7°C° 0 mm 2 mps 774 mmHg 67%
    20:00 +6°C° 0 mm 2 mps 774 mmHg 68%
    21:00 +6°C° 0 mm 2 mps 774 mmHg 68%
    22:00 +6°C° 0 mm 2 mps 774 mmHg 69%
    23:00 +5°C° 0 mm 2 mps 773 mmHg 69%

    26 February, Tuesday

    Time Temperature Precipitation Wind Pressure Humidity
    00:00 +5°C° 0 mm 2 mps 773 mmHg 69%
    01:00 +5°C° 0 mm 2 mps 773 mmHg 70%
    02:00 +4°C° 0 mm 2 mps 773 mmHg 71%
    03:00 +4°C° 0 mm 2 mps 773 mmHg 73%
    04:00 +4°C° 0 mm 2 mps 772 mmHg 74%
    05:00 +3°C° 0 mm 2 mps 772 mmHg 75%
    06:00 +3°C° 0 mm 2 mps 772 mmHg 77%
    07:00 +3°C° 0 mm 2 mps 772 mmHg 78%
    08:00 +4°C° 0 mm 3 mps 772 mmHg 72%
    09:00 +5°C° 0 mm 3 mps 772 mmHg 66%
    10:00 +8°C° 0 mm 3 mps 772 mmHg 61%
    11:00 +9°C° 0 mm 3 mps 772 mmHg 58%
    12:00 +11°C° 0 mm 3 mps 772 mmHg 55%
    13:00 +12°C° 0 mm 3 mps 771 mmHg 52%
    14:00 +12°C° 0 mm 3 mps 771 mmHg 53%
    15:00 +12°C° 0 mm 3 mps 771 mmHg 55%
    16:00 +13°C° 0 mm 3 mps 770 mmHg 57%
    17:00 +11°C° 0 mm 3 mps 770 mmHg 64%
    18:00 +9°C° 0 mm 2 mps 771 mmHg 70%
    19:00 +8°C° 0 mm 2 mps 771 mmHg 77%
    20:00 +8°C° 0 mm 2 mps 771 mmHg 78%
    21:00 +7°C° 0 mm 2 mps 771 mmHg 80%
    22:00 +7°C° 0 mm 2 mps 771 mmHg 82%
    23:00 +6°C° 0 mm 2 mps 771 mmHg 83%

    27 February, Wednesday

    Time Temperature Precipitation Wind Pressure Humidity
    00:00 +6°C° 0 mm 2 mps 770 mmHg 85%
    01:00 +5°C° 0 mm 2 mps 770 mmHg 86%
    02:00 +5°C° 0 mm 2 mps 770 mmHg 87%
    03:00 +5°C° 0 mm 2 mps 770 mmHg 88%
    04:00 +4°C° 0 mm 2 mps 769 mmHg 89%
    05:00 +5°C° 0 mm 1 mps 769 mmHg 89%
    06:00 +5°C° 0 mm 1 mps 769 mmHg 89%
    07:00 +5°C° 0 mm 1 mps 769 mmHg 89%
    08:00 +5°C° 0 mm 2 mps 769 mmHg 82%
    09:00 +7°C° 0 mm 2 mps 768 mmHg 76%
    10:00 +9°C° 0 mm 2 mps 768 mmHg 70%
    11:00 +10°C° 0 mm 2 mps 768 mmHg 65%
    12:00 +13°C° 0 mm 2 mps 767 mmHg 60%
    13:00 +13°C° 0 mm 3 mps 767 mmHg 55%
    14:00 +15°C° 0 mm 2 mps 766 mmHg 55%
    15:00 +15°C° 0 mm 2 mps 765 mmHg 56%
    16:00 +15°C° 0 mm 2 mps 765 mmHg 57%
    17:00 +14°C° 0 mm 2 mps 764 mmHg 61%
    18:00 +12°C° 0 mm 2 mps 764 mmHg 66%
    19:00 +9°C° 0 mm 2 mps 763 mmHg 71%
    20:00 +9°C° 0 mm 3 mps 763 mmHg 72%
    21:00 +9°C° 0 mm 3 mps 763 mmHg 72%
    22:00 +8°C° 0 mm 4 mps 762 mmHg 73%
    23:00 +7°C° 0 mm 4 mps 762 mmHg 74%

    28 February, Thursday

    Time Temperature Precipitation Wind Pressure Humidity
    00:00 +7°C° 0 mm 4 mps 762 mmHg 74%
    01:00 +7°C° 0 mm 4 mps 761 mmHg 75%
    02:00 +7°C° 0 mm 4 mps 761 mmHg 77%
    03:00 +7°C° 0 mm 5 mps 761 mmHg 79%
    04:00 +6°C° 0 mm 5 mps 760 mmHg 81%
    05:00 +6°C° 0 mm 5 mps 760 mmHg 84%
    06:00 +6°C° 0 mm 5 mps 760 mmHg 88%
    07:00 +5°C° 0 mm 4 mps 760 mmHg 91%
    08:00 +6°C° 0 mm 5 mps 760 mmHg 86%
    09:00 +7°C° 0 mm 5 mps 760 mmHg 82%
    10:00 +8°C° 0 mm 5 mps 760 mmHg 78%
    11:00 +9°C° 0 mm 5 mps 759 mmHg 72%
    12:00 +10°C° 0 mm 5 mps 759 mmHg 67%
    13:00 +12°C° 0 mm 5 mps 759 mmHg 62%
    14:00 +12°C° 0 mm 5 mps 759 mmHg 61%
    15:00 +12°C° 0 mm 5 mps 759 mmHg 61%
    16:00 +12°C° 0 mm 5 mps 758 mmHg 61%
    17:00 +10°C° 0 mm 5 mps 759 mmHg 68%
    18:00 +8°C° 0 mm 4 mps 759 mmHg 74%
    19:00 +8°C° 0 mm 3 mps 759 mmHg 80%
    20:00 +8°C° 0 mm 3 mps 759 mmHg 82%
    21:00 +7°C° 0 mm 3 mps 759 mmHg 84%
    22:00 +6°C° 0 mm 4 mps 759 mmHg 86%
    23:00 +5°C° 0 mm 4 mps 758 mmHg 88%
    Show more